Home   Weather   51°31'N, 2°34'W   Past weeks
Flag for United Kingdom

Past Weather in 51°31'N, 2°34'W, United Kingdom — Yesterday and Last 2 Weeks

Now
66 °F

Scattered clouds.


Feels Like: 66 °F
Forecast: 74 / 54 °F
Wind: 20 mph from Northeast

Location: Bristol / Lulsgate

Current Time: Jun 26, 2019 at 5:29:27 pm

Latest Report: Jun 26, 2019 at 4:50 pm


Visibility: N/A

Pressure: 30.33 "Hg

Humidity: 78%

Dew Point: 59 °F

Location of 51°31'N, 2°34'WLocation

Past Weather in 51°31'N, 2°34'W — Graph

°F

51°31'N, 2°34'W Temperature Yesterday

Maximum temperature yesterday: 64 °F (at 3:20 pm)
Minimum temperature yesterday: 57 °F (at 12:20 am)
Average temperature yesterday: 61 °F

High & Low Weather Summary for the Past Weeks

 TemperatureHumidityPressure
High68 °F (Jun 22, 2:20 pm)100% (Jun 11, 4:20 pm)30.36 "Hg (Jun 11, 4:20 pm)
Low46 °F (Jun 11, 8:50 pm)43% (Jun 21, 3:50 pm)29.62 "Hg (Jun 13, 6:50 am)
Average56 °F86%29.95 "Hg
* Reported Jun 11 4:20 pm — Jun 26 4:20 pm, 51°31'N, 2°34'W. Weather by CustomWeather, © 2019

Note: Actual official high and low records may vary slightly from our data, if they occured in-between our weather recording intervals... More about our weather records

Advertising

51°31'N, 2°34'W Weather History for the Previous 24 Hours

Scroll right to see more
 ConditionsComfort  
Time TempWeatherWind HumidityBarometerVisibility
4:20 pm
Wed, Jun 26
66 °FScattered clouds.20 mph78%30.33 "HgN/A
3:50 pm66 °FPartly sunny.20 mph78%30.33 "HgN/A
3:20 pm64 °FOvercast.18 mph83%30.33 "HgN/A
2:50 pm64 °FMostly cloudy.20 mph83%30.33 "HgN/A
2:20 pm63 °FLow clouds.17 mph83%30.33 "HgN/A
1:50 pm61 °FLow clouds.18 mph88%30.33 "HgN/A
1:20 pm61 °FLow clouds.18 mph88%30.33 "HgN/A
12:50 pm61 °FMostly cloudy.20 mph88%30.36 "HgN/A
12:20 pm61 °FLow clouds.16 mph88%30.36 "HgN/A
11:50 am61 °FLow clouds.16 mph88%30.36 "HgN/A
11:20 am59 °FLow clouds.16 mph94%30.36 "HgN/A
10:50 am59 °FLow clouds.16 mph94%30.36 "HgN/A
10:20 am59 °FPartly sunny.15 mph94%30.33 "Hg4 mi
9:50 am59 °FLow clouds.16 mph94%30.33 "HgN/A
9:20 am59 °FLow clouds.14 mph94%30.33 "HgN/A
8:50 am59 °FLow clouds.20 mph100%30.30 "HgN/A
8:20 am57 °FPartly sunny.17 mph100%30.30 "Hg4 mi
7:50 am57 °FFog.17 mph100%30.30 "Hg2 mi
7:20 am57 °FFog.16 mph100%30.30 "Hg1 mi
6:50 am57 °FFog.15 mph100%30.30 "Hg1 mi
6:20 am57 °FFog.15 mph100%30.30 "Hg0 mi
5:50 am57 °FFog.15 mph100%30.27 "Hg0 mi
5:20 am57 °FFog.13 mph100%30.27 "Hg0 mi
4:50 am57 °FFog.13 mph100%30.27 "Hg0 mi
4:20 am57 °FFog.13 mph100%30.27 "Hg0 mi
3:50 am57 °FFog.12 mph100%30.27 "Hg0 mi
3:20 am57 °FFog.9 mph100%30.24 "Hg0 mi
2:50 am59 °FFog.9 mph100%30.24 "Hg0 mi
2:20 am59 °FFog.9 mph100%30.24 "Hg0 mi
1:50 am59 °FFog.10 mph100%30.24 "Hg0 mi
1:20 am59 °FFog.9 mph100%30.24 "Hg0 mi
12:50 am59 °FFog.12 mph100%30.24 "Hg0 mi
12:20 am59 °FFog.12 mph100%30.24 "Hg0 mi
11:50 pm
Tue, Jun 25
59 °FFog.10 mph100%30.24 "Hg0 mi
11:20 pm59 °FFog.10 mph100%30.24 "Hg1 mi
10:50 pm59 °FFog.10 mph100%30.21 "Hg1 mi
9:50 pm61 °FFog.12 mph94%30.21 "Hg2 mi
9:20 pm61 °FFog.10 mph94%30.18 "Hg2 mi
8:50 pm61 °FLow clouds.9 mph100%30.18 "Hg5 mi
8:20 pm63 °FPartly sunny.10 mph94%30.18 "Hg5 mi
7:50 pm63 °FPartly sunny.10 mph94%30.18 "Hg5 mi
7:20 pm63 °FPartly sunny.8 mph94%30.15 "Hg5 mi
6:50 pm63 °FPartly sunny.8 mph94%30.15 "HgN/A
6:20 pm64 °FPartly sunny.9 mph88%30.15 "HgN/A
5:50 pm64 °FPartly sunny.9 mph88%30.15 "HgN/A
5:20 pm64 °FBroken clouds.9 mph88%30.12 "HgN/A
Weather by CustomWeather, © 2019

See weather overview